www.pogodaiklimat.ru

Погода и климат >> Архив погоды >> Гренландия >> Kap Morris Jesup


ПОГОДА Kap Morris Jesup

  • Прогноз погоды Kap Morris Jesup
  • Монитор погоды Kap Morris Jesup

АРХИВ ПОГОДЫ Kap Morris Jesup

Время (UTC), дата Ветер
(напр.,м/с)
 
Видим.   Явления Облачность Т
(С)
Тd
(С)
f
(%)
Тe
(С)
Тes
(С)
Комфортность P
(гПа)
Po
(гПа)
Тmin
(С)
Tmax
(С)
R
(мм)
R24
(мм)
S
(см)
01 12.03 В 2 н/о н/о -40.6 -43.7 72 -50 -50 опасность
обморожения
1012.0 1011.5
02 12.03 В 3 н/о н/о -41.1 -44.3 71 -52 -52 опасность
обморожения
1011.8 1011.3
03 12.03 СВ 2 н/о н/о -40.5 -43.6 72 -50 -50 опасность
обморожения
1011.7 1011.2
04 12.03 СВ 3 н/о н/о -40.8 -43.9 72 -52 -52 опасность
обморожения
1011.7 1011.2
05 12.03 В 2 н/о н/о -41.6 -44.9 70 -51 -51 опасность
обморожения
1011.6 1011.1
06 12.03 ЮВ 4 н/о н/о -41.5 -44.8 70 -56 -56 опасность
обморожения
1011.6 1011.1
07 12.03 В 2 н/о н/о -41.7 -45.1 69 -51 -51 опасность
обморожения
1011.5 1011.0
08 12.03 В 3 н/о н/о -43.0 -46.5 68 -54 -54 опасность
обморожения
1011.8 1011.3
09 12.03 В 3 н/о н/о -41.5 -44.8 70 -54 -54 опасность
обморожения
1011.8 1011.3
10 12.03 ЮВ 3 н/о н/о -41.7 -45.0 70 -54 -54 опасность
обморожения
1011.8 1011.3
11 12.03 ЮВ 3 н/о н/о -41.2 -44.5 70 -52 -52 опасность
обморожения
1011.9 1011.4
12 12.03 В 4 н/о н/о -41.3 -44.4 72 -54 -54 опасность
обморожения
1011.8 1011.3
13 12.03 В 2 н/о н/о -40.9 -44.0 72 -50 -50 опасность
обморожения
1011.8 1011.3
14 12.03 В 2 н/о н/о -41.6 -44.9 70 -51 -51 опасность
обморожения
1011.7 1011.2
15 12.03 В 3 н/о н/о -41.5 -44.8 70 -54 -54 опасность
обморожения
1011.5 1011.0
16 12.03 В 4 н/о н/о -41.5 -44.8 70 -56 -56 опасность
обморожения
1011.5 1011.0
17 12.03 ЮВ 2 н/о н/о -41.5 -44.8 70 -51 -51 опасность
обморожения
1011.2 1010.7
18 12.03 В 2 н/о н/о -42.5 -45.9 69 -52 -52 опасность
обморожения
1011.1 1010.6
19 12.03 ЮВ 2 н/о н/о -42.2 -45.6 69 -50 -50 опасность
обморожения
1011.0 1010.5
20 12.03 ЮВ 2 н/о н/о -42.2 -45.6 69 -50 -50 опасность
обморожения
1010.6 1010.1
21 12.03 ЮВ 1 н/о н/о -41.9 -45.3 69 -47 -47 опасность
обморожения
1010.5 1010.0
22 12.03 ЮЗ 2 н/о н/о -42.0 -45.4 69 -50 -50 опасность
обморожения
1010.3 1009.8
23 12.03 ЮВ 1 н/о н/о -42.7 -46.1 69 -45 -45 опасность
обморожения
1010.0 1009.5
00 13.03 В 3 н/о н/о -42.7 -46.1 69 -54 -54 опасность
обморожения
1009.6 1009.1
01 13.03 В 1 н/о н/о -42.2 -45.6 69 -48 -48 опасность
обморожения
1009.1 1008.6
02 13.03 СВ 3 н/о н/о -42.8 -46.3 68 -54 -54 опасность
обморожения
1008.8 1008.3
03 13.03 В 4 н/о н/о -43.2 -46.7 68 -57 -57 опасность
обморожения
1008.2 1007.7
04 13.03 В 3 н/о н/о -42.6 -46.0 69 -55 -55 опасность
обморожения
1007.8 1007.3
05 13.03 В 4 н/о н/о -43.1 -46.6 68 -58 -58 опасность
обморожения
1007.4 1006.9
06 13.03 ЮВ 1 н/о н/о -42.3 -45.7 69 -48 -48 опасность
обморожения
1006.8 1006.3
07 13.03 ЮВ 2 н/о н/о -42.3 -45.7 69 -52 -52 опасность
обморожения
1006.4 1005.9
08 13.03 ЮВ 4 н/о н/о -42.1 -45.5 69 -55 -55 опасность
обморожения
1006.1 1005.6
09 13.03 В 2 н/о н/о -41.7 -45.1 69 -51 -51 опасность
обморожения
1005.8 1005.3
10 13.03 СВ 1 н/о н/о -42.4 -46.0 68 -48 -48 опасность
обморожения
1005.4 1004.9
11 13.03 н/о н/о -42.1 -45.7 68 1004.8 1004.3
12 13.03 В 5 н/о н/о -40.4 -43.9 69 -56 -56 опасность
обморожения
1004.7 1004.2
13 13.03 В 2 н/о н/о -42.1 -45.7 68 -52 -52 опасность
обморожения
1004.3 1003.8
14 13.03 В 2 н/о н/о -42.0 -45.6 68 -52 -52 опасность
обморожения
1004.3 1003.8
15 13.03 В 3 н/о н/о -41.9 -45.5 68 -54 -54 опасность
обморожения
1003.6 1003.1
16 13.03 В 3 н/о н/о -41.1 -44.6 69 -53 -53 опасность
обморожения
1003.3 1002.8
17 13.03 В 2 н/о н/о -41.0 -44.5 69 -50 -50 опасность
обморожения
1003.1 1002.6
18 13.03 В 3 н/о н/о -40.9 -44.4 69 -52 -52 опасность
обморожения
1003.0 1002.5
19 13.03 С 1 н/о н/о -42.2 -45.8 68 -44 -44 опасность
обморожения
1002.8 1002.3
20 13.03 В 4 н/о н/о -42.0 -45.6 68 -56 -56 опасность
обморожения
1002.8 1002.3
21 13.03 В 4 н/о н/о -41.3 -44.9 68 -55 -55 опасность
обморожения
1003.0 1002.5
22 13.03 СВ 3 н/о н/о -40.4 -43.9 69 -51 -51 опасность
обморожения
1003.0 1002.5
23 13.03 СВ 3 н/о н/о -41.4 -45.0 68 -54 -54 опасность
обморожения
1003.0 1002.5
00 14.03 В 2 н/о н/о -41.1 -44.7 68 -49 -49 опасность
обморожения
1002.9 1002.4
01 14.03 В 2 н/о н/о -41.1 -44.7 68 -51 -51 опасность
обморожения
1003.0 1002.5
02 14.03 В 2 н/о н/о -41.0 -44.5 69 -49 -49 опасность
обморожения
1003.3 1002.8
03 14.03 В 3 н/о н/о -41.4 -45.0 68 -54 -54 опасность
обморожения
1003.3 1002.8
04 14.03 В 3 н/о н/о -40.9 -44.5 68 -53 -53 опасность
обморожения
1003.5 1003.0
05 14.03 В 4 н/о н/о -41.2 -44.8 68 -55 -55 опасность
обморожения
1003.7 1003.2
06 14.03 В 4 н/о н/о -40.8 -44.4 68 -54 -54 опасность
обморожения
1004.0 1003.5
07 14.03 В 1 н/о н/о -40.2 -43.7 69 -42 -42 опасность
обморожения
1004.3 1003.8
08 14.03 штиль 0 н/о н/о -39.1 -42.7 68 -39 -39 опасность
обморожения
1005.0 1004.5
09 14.03 штиль 0 н/о н/о -38.2 -41.7 69 -38 -38 опасность
обморожения
1005.5 1005.0
10 14.03 В 1 н/о н/о -37.5 -41.0 70 -39 -39 опасность
обморожения
1006.2 1005.7
11 14.03 СЗ 1 н/о н/о -36.8 -40.3 70 -38 -38 опасность
обморожения
1006.7 1006.2
12 14.03 З 2 н/о н/о -35.5 -39.1 69 -42 -42 опасность
обморожения
1007.2 1006.7
13 14.03 штиль 0 н/о н/о -34.0 -37.3 72 -34 -34 опасность
обморожения
1007.6 1007.1
14 14.03 СЗ 1 н/о н/о -33.4 -36.8 71 -35 -35 опасность
обморожения
1007.9 1007.4
15 14.03 ЮВ 1 н/о н/о -33.1 -36.3 73 -38 -38 опасность
обморожения
1008.3 1007.8
16 14.03 В 2 н/о н/о -32.4 -35.7 72 -39 -39 опасность
обморожения
1008.1 1007.6
17 14.03 ЮВ 1 н/о н/о -31.6 -34.8 73 -36 -36 опасность
обморожения
1008.3 1007.8
18 14.03 В 2 н/о н/о -30.7 -33.8 74 -37 -37 опасность
обморожения
1008.5 1008.0
19 14.03 ЮВ 2 н/о н/о -30.1 -33.2 74 -38 -38 опасность
обморожения
1008.7 1008.2
20 14.03 З 4 н/о н/о -29.0 -32.0 75 -39 -39 опасность
обморожения
1009.6 1009.1
21 14.03 З 3 н/о н/о -26.6 -29.4 77 -36 -36 опасность
обморожения
1010.1 1009.6
22 14.03 СЗ 5 н/о н/о -25.9 -28.7 77 -37 -37 опасность
обморожения
1010.7 1010.2
23 14.03 З 2 н/о н/о -27.4 -30.3 76 -35 -35 опасность
обморожения
1011.0 1010.5
00 15.03 З 4 н/о н/о -28.4 -31.4 75 -39 -39 опасность
обморожения
1011.2 1010.7
01 15.03 З 5 н/о н/о -29.1 -32.1 75 -41 -41 опасность
обморожения
1011.8 1011.3
02 15.03 З 6 н/о н/о -29.9 -33.0 74 -43 -43 опасность
обморожения
1012.1 1011.6
03 15.03 З 4 н/о н/о -30.5 -33.6 74 -41 -41 опасность
обморожения
1012.7 1012.2
04 15.03 З 5 н/о н/о -31.7 -34.9 73 -45 -45 опасность
обморожения
1013.0 1012.5
05 15.03 З 6 н/о н/о -33.4 -36.6 73 -48 -48 опасность
обморожения
1013.7 1013.2
06 15.03 З 5 н/о н/о -34.1 -37.4 72 -47 -47 опасность
обморожения
1014.3 1013.8
07 15.03 З 4 н/о н/о -34.3 -37.6 72 -47 -47 опасность
обморожения
1014.6 1014.1
08 15.03 З 4 н/о н/о -35.0 -38.3 72 -48 -48 опасность
обморожения
1015.0 1014.5
09 15.03 З 5 н/о н/о -35.3 -38.7 71 -49 -49 опасность
обморожения
1015.2 1014.7
10 15.03 З 7 н/о н/о -36.6 -40.0 71 -53 -53 опасность
обморожения
1015.5 1015.0
11 15.03 З 2 н/о н/о -37.3 -40.7 70 -46 -46 опасность
обморожения
1016.2 1015.7
12 15.03 СЗ 6 н/о н/о -38.1 -41.3 72 -54 -54 опасность
обморожения
1016.3 1015.8
13 15.03 СЗ 4 н/о н/о -38.7 -42.1 70 -52 -52 опасность
обморожения
1016.5 1016.0
14 15.03 Ю 3 н/о н/о -37.2 -40.4 72 -47 -47 опасность
обморожения
1016.5 1016.0
15 15.03 ЮЗ 3 н/о н/о -38.0 -41.3 71 -48 -48 опасность
обморожения
1016.5 1016.0
16 15.03 ЮЗ 4 н/о н/о -38.2 -41.7 69 -51 -51 опасность
обморожения
1016.6 1016.1
17 15.03 ЮЗ 3 н/о н/о -38.9 -42.2 71 -49 -49 опасность
обморожения
1016.7 1016.2
18 15.03 ЮЗ 4 н/о н/о -38.1 -41.3 72 -51 -51 опасность
обморожения
1016.8 1016.3
19 15.03 З 1 н/о н/о -37.6 -40.8 72 -43 -43 опасность
обморожения
1016.7 1016.2
20 15.03 ЮЗ 2 н/о н/о -39.2 -42.6 70 -48 -48 опасность
обморожения
1017.1 1016.6
21 15.03 ЮЗ 3 н/о н/о -37.4 -40.6 72 -48 -48 опасность
обморожения
1017.2 1016.7
22 15.03 ЮЗ 3 н/о н/о -38.8 -42.2 70 -50 -50 опасность
обморожения
1017.3 1016.8
23 15.03 З 2 н/о н/о -39.2 -42.6 70 -48 -48 опасность
обморожения
1017.4 1016.9
00 16.03 СЗ 2 н/о н/о -40.5 -44.0 69 -48 -48 опасность
обморожения
1017.2 1016.7
01 16.03 Ю 3 н/о н/о -38.8 -42.2 70 -49 -49 опасность
обморожения
1017.2 1016.7
02 16.03 Ю 2 н/о н/о -38.6 -41.9 71 -46 -46 опасность
обморожения
1017.3 1016.8
03 16.03 В 1 н/о н/о -38.3 -41.6 71 -40 -40 опасность
обморожения
1017.3 1016.8
04 16.03 ЮВ 1 н/о н/о -38.8 -42.2 70 -41 -41 опасность
обморожения
1017.2 1016.7
05 16.03 штиль 0 н/о н/о -38.2 -41.5 71 -38 -38 опасность
обморожения
1017.2 1016.7
06 16.03 штиль 0 н/о н/о -38.4 -41.8 70 -38 -38 опасность
обморожения
1017.4 1016.9
07 16.03 Ю 2 н/о н/о -38.4 -41.8 70 -47 -47 опасность
обморожения
1017.8 1017.3
08 16.03 ЮЗ 3 н/о н/о -38.4 -41.8 70 -49 -49 опасность
обморожения
1018.0 1017.5
09 16.03 С 3 н/о н/о -39.4 -42.8 70 -50 -50 опасность
обморожения
1018.1 1017.6
10 16.03 СЗ 3 н/о н/о -39.1 -42.5 70 -51 -51 опасность
обморожения
1018.5 1018.0
11 16.03 СЗ 3 н/о н/о -38.8 -42.2 70 -49 -49 опасность
обморожения
1018.6 1018.1
12 16.03 СЗ 3 н/о н/о -38.4 -41.8 70 -49 -49 опасность
обморожения
1018.8 1018.3
13 16.03 СЗ 4 н/о н/о -38.1 -41.6 69 -51 -51 опасность
обморожения
1018.8 1018.3
14 16.03 З 2 н/о н/о -37.3 -40.8 70 -46 -46 опасность
обморожения
1018.9 1018.4
15 16.03 З 4 н/о н/о -37.2 -40.7 70 -49 -49 опасность
обморожения
1019.1 1018.6
16 16.03 З 3 н/о н/о -37.2 -40.7 70 -47 -47 опасность
обморожения
1018.9 1018.4
17 16.03 СЗ 4 н/о н/о -37.2 -40.7 70 -50 -50 опасность
обморожения
1018.8 1018.3
18 16.03 СЗ 3 н/о н/о -37.3 -40.7 70 -49 -49 опасность
обморожения
1018.7 1018.2
19 16.03 З 3 н/о н/о -37.3 -40.7 70 -47 -47 опасность
обморожения
1018.7 1018.2
20 16.03 СЗ 5 н/о н/о -37.4 -40.8 70 -51 -51 опасность
обморожения
1018.8 1018.3
21 16.03 З 2 н/о н/о -37.1 -40.5 70 -46 -46 опасность
обморожения
1018.8 1018.3
22 16.03 З 4 н/о н/о -37.1 -40.5 70 -50 -50 опасность
обморожения
1018.6 1018.1
23 16.03 С 3 н/о н/о -37.4 -40.8 70 -48 -48 опасность
обморожения
1018.6 1018.1
00 17.03 С 3 н/о н/о -37.6 -41.1 70 -48 -48 опасность
обморожения
1018.5 1018.0
01 17.03 СЗ 2 н/о н/о -37.7 -41.2 70 -47 -47 опасность
обморожения
1018.5 1018.0
02 17.03 СЗ 4 н/о н/о -37.9 -41.4 70 -51 -51 опасность
обморожения
1018.5 1018.0
03 17.03 СЗ 3 н/о н/о -37.9 -41.4 70 -48 -48 опасность
обморожения
1018.2 1017.7
04 17.03 З 4 н/о н/о -37.9 -41.4 70 -51 -51 опасность
обморожения
1018.1 1017.6
05 17.03 З 4 н/о н/о -37.8 -41.3 70 -50 -50 опасность
обморожения
1017.9 1017.4
06 17.03 СЗ 6 н/о н/о -38.0 -41.5 69 -53 -53 опасность
обморожения
1017.8 1017.3
07 17.03 З 7 н/о н/о -37.9 -41.4 70 -55 -55 опасность
обморожения
1017.8 1017.3
08 17.03 СЗ 7 н/о н/о -38.3 -41.9 69 -55 -55 опасность
обморожения
1017.9 1017.4
09 17.03 З 6 н/о н/о -38.6 -42.2 69 -55 -55 опасность
обморожения
1018.0 1017.5
10 17.03 З 7 н/о н/о -38.5 -42.1 69 -55 -55 опасность
обморожения
1017.9 1017.4
11 17.03 З 8 н/о н/о -38.3 -41.9 69 -56 -56 опасность
обморожения
1017.9 1017.4
12 17.03 З 7 н/о н/о -37.7 -41.5 67 -55 -55 опасность
обморожения
1017.9 1017.4
13 17.03 З 7 н/о н/о -37.8 -41.6 67 -55 -55 опасность
обморожения
1017.7 1017.2
14 17.03 З 8 н/о н/о -37.7 -41.5 67 -55 -55 опасность
обморожения
1017.3 1016.8
15 17.03 З 6 н/о н/о -37.8 -41.4 69 -54 -54 опасность
обморожения
1017.2 1016.7
16 17.03 З 7 н/о н/о -37.6 -41.4 67 -55 -55 опасность
обморожения
1017.0 1016.5
17 17.03 З 7 н/о н/о -37.5 -41.3 67 -54 -54 опасность
обморожения
1016.5 1016.0
18 17.03 З 8 н/о н/о -37.5 -41.3 67 -55 -55 опасность
обморожения
1016.2 1015.7
19 17.03 З 8 н/о н/о -37.7 -41.5 67 -55 -55 опасность
обморожения
1016.1 1015.6
20 17.03 З 7 н/о н/о -37.7 -41.5 67 -55 -55 опасность
обморожения
1016.1 1015.6
21 17.03 З 7 н/о н/о -38.3 -42.0 68 -55 -55 опасность
обморожения
1016.2 1015.7
22 17.03 З 8 н/о н/о -38.1 -41.8 68 -56 -56 опасность
обморожения
1015.8 1015.3
23 17.03 З 8 н/о н/о -37.6 -41.4 67 -55 -55 опасность
обморожения
1015.9 1015.4
00 18.03 З 7 н/о н/о -37.3 -41.1 67 -54 -54 опасность
обморожения
1015.5 1015.0
01 18.03 З 8 н/о н/о -37.0 -40.8 68 -54 -54 опасность
обморожения
1015.3 1014.8
02 18.03 З 8 н/о н/о -37.1 -40.9 68 -55 -55 опасность
обморожения
1015.0 1014.5
03 18.03 З 9 н/о н/о -37.6 -41.4 67 -56 -56 опасность
обморожения
1014.8 1014.3
04 18.03 З 8 н/о н/о -38.0 -41.7 68 -56 -56 опасность
обморожения
1014.4 1013.9
05 18.03 З 7 н/о н/о -38.1 -41.8 68 -55 -55 опасность
обморожения
1013.9 1013.4
06 18.03 З 9 н/о н/о -38.7 -42.4 68 -58 -58 опасность
обморожения
1013.7 1013.2
07 18.03 З 12 н/о н/о -39.5 -43.2 68 -61 -61 опасность
обморожения
1013.5 1013.0
08 18.03 З 12 н/о н/о -40.0 -43.7 68 -61 -61 опасность
обморожения
1013.2 1012.7
09 18.03 З 10 н/о н/о -40.3 -43.9 68 -60 -60 опасность
обморожения
1012.8 1012.3
10 18.03 З 10 н/о н/о -40.4 -44.0 68 -61 -61 опасность
обморожения
1012.6 1012.1
11 18.03 З 9 н/о н/о -40.8 -44.6 67 -61 -61 опасность
обморожения
1012.2 1011.7
12 18.03 З 12 н/о н/о -40.3 -44.1 67 -62 -62 опасность
обморожения
1011.7 1011.2
13 18.03 З 11 н/о н/о -40.2 -44.0 67 -61 -61 опасность
обморожения
1011.3 1010.8
14 18.03 З 12 н/о н/о -39.9 -43.7 67 -61 -61 опасность
обморожения
1010.8 1010.3
15 18.03 З 11 н/о н/о -39.9 -43.7 67 -61 -61 опасность
обморожения
1010.5 1010.0
16 18.03 З 11 н/о н/о -39.6 -43.4 67 -61 -61 опасность
обморожения
1009.6 1009.1
17 18.03 З 12 н/о н/о -39.6 -43.4 67 -61 -61 опасность
обморожения
1009.3 1008.8
18 18.03 З 11 н/о н/о -39.7 -43.5 67 -61 -61 опасность
обморожения
1008.5 1008.0
19 18.03 З 14 н/о н/о -39.7 -43.5 67 -62 -62 опасность
обморожения
1007.7 1007.2
20 18.03 З 10 н/о н/о -39.8 -43.5 68 -60 -60 опасность
обморожения
1007.7 1007.2
21 18.03 З 11 н/о н/о -39.4 -43.2 67 -60 -60 опасность
обморожения
1008.1 1007.6
22 18.03 З 11 н/о н/о -39.1 -42.9 67 -60 -60 опасность
обморожения
1008.0 1007.5
23 18.03 З 6 н/о н/о -38.9 -42.6 68 -55 -55 опасность
обморожения
1007.8 1007.3
00 19.03 З 6 н/о н/о -38.7 -42.6 66 -55 -55 опасность
обморожения
1007.5 1007.0
01 19.03 З 9 н/о н/о -38.9 -42.7 67 -58 -58 опасность
обморожения
1007.0 1006.5

 

Местоположение метеостанции Kap Morris Jesup (Гренландия): широта 83.65 долгота -33.36 высота над уровнем моря 4 м.

В архиве по умолчанию представлена погода Kap Morris Jesup за последнюю неделю. Архивные данные за месяц целиком и за предыдущие месяцы, начиная с января 2011 года, Вы можете получить, выбрав интересующий диапазон дат из раскрывающегося списка и нажав кнопку "Ввод!".


*Определитесь, кто Вы:
робот инопланетянин человек

Внимание! Время в таблицах - всемирное. Для получения местного времени необходимо прибавить поправку, которая равна -3 ч.

Смотрите также архив погоды в соседних городах и на ближайших метеорологических станциях:

Погода Station Nord aws (Гренландия) (327 км)
Погода в Алерте (Нунавут, Канада) (404 км)
Погода Henrik Kroeyer Holm (Гренландия) (443 км)
Погода Danmarkshavn (Гренландия) (808 км)
Погода на Верлегенхукен (Норвегия) (841 км)
Погода в Юрике (Нунавут, Канада) (883 км)
Погода в Юрике (Нунавут, Канада) (884 км)
Погода в Ню-Олесунн (Норвегия) (889 км)
Погода на Острове Карла XII (Норвегия) (898 км)
Погода Mittarfik Qaanaaq (Гренландия) (919 км)

Пояснения к столбцам:

Ветер - указаны скорость ветра в м/с - средняя за 10 мин, порывы в срок и между сроками (в фигурных скобках) и направление, откуда дует ветер: С - северный, СВ - северо-восточный, В - восточный, ЮВ - юго-восточный, Ю - южный, ЮЗ - юго-западный, З - западный, СЗ - северо-западный.
Видимость - горизонтальная дальность видимости в метрах или километрах. При видимости от 1 до 10 км при отсутствии осадков обычно наблюдается дымка, при ухудшении видимости до 1 км и менее - туман. В сухую погоду видимость может ухудшаться дымом, пылью или мглою.
Явления - указаны атмосферные явления, наблюдавшиеся в срок или в последний час перед сроком; фигурными скобками обозначены явления, наблюдавшиеся между сроками (за 1-3 часа до срока); квадратными скобками обозначены град или гололедные отложения с указанием их диаметра в мм.
Облачность - указаны через наклонную черту общая и нижняя облачность в баллах и высота нижней границы облаков в метрах; квадратными скобками обозначены формы облаков: Ci - перистые, Cs - перисто-слоистые, Cc - перисто-кучевые, Ac - высококучевые, As - высокослоистые, Sc - слоисто-кучевые, Ns - слоисто-дождевые, Cu - кучевые, Cb - кучево-дождевые. Подробнее классификацию облаков см. в Атласе облаков (PDF).
T - Температура воздуха - температура, измеренная на высоте 2 м над землей.
Td - Температура точки росы - температура, при понижении до которой содержащийся в воздухе водяной пар достигнет насыщения.
f - Относительная влажность воздуха - влажноcть воздуха, измеренная на высоте 2 м над землей.
Te - Эффективная температура - температура, которую ощущает одетый по сезону человек в тени. Характеристика душности погоды. При расчете учитывается влияние влажности воздуха и скорости ветра на теплоощущения человека.
Tes - Эффективная температура на солнце - температура, которую ощущает человек, с поправкой на солнечный нагрев. Характеристика знойности погоды. Зависит от высоты солнца над горизонтом, облачности и скорости ветра. Ночью, в пасмурную погоду, а также при ветре 12 м/с и более поправка равна нулю.
P - Атмосферное давление - приведенное к уровню моря атмосферное давление.
Po - Атмосферное давление - измеренное на уровне метеостанции атмосферное давление.
Tmin - Минимальная температура - минимум температуры воздуха на высоте 2 м над землей.
Tmax - Максимальная температура - максимум температуры воздуха на высоте 2 м над землей.
R - Количество осадков - Количество выпавших осадков за период времени, мм. При наведении курсора мыши на число - период времени, за который выпало указанное количество осадков.
R24 - Количество осадков - Количество выпавших осадков за 24 часа, мм.
S - Снежный покров - Высота снежного покрова, см. При наведении курсора мыши на число - состояние снежного покрова и степень покрытия местности в баллах.